Flag for Honduras Weather past 2 weeks in San Pedro Sula, Honduras

Now
77 °F

Passing clouds.


Feels Like: 78 °F
Forecast: 74 / 93 °F
Wind: No wind

Location: La Mesa San Pedro Sula

Current Time: Sep 18, 2014 at 2:11:47 AM

Latest Report: Sep 18, 2014 at 12:00 AM


Visibility: N/A

Pressure: 29.92 "Hg

Humidity: 94%

Dew point: 75 °F

Location of San Pedro SulaLocation

Historic Weather in San Pedro Sula — Graph

°F

San Pedro Sula temperature yesterday

Maximum temperature yesterday: 93 °F (at 2:00 PM)
Minimum temperature yesterday: 75 °F (at 6:00 AM)
Average temperature yesterday: 83 °F

Past Weeks' High & Low Weather Summary

 TemperatureHumidityPressure
High95 °F (Sep 3, 1:00 PM)100% (Sep 3, 6:00 AM)30.01 "Hg (Sep 3, 6:00 AM)
Low70 °F (Sep 3, 4:00 AM)47% (Sep 4, 3:00 PM)29.74 "Hg (Sep 11, 3:00 PM)
Average81 °F84%29.89 "Hg
* Reported Midnight between Sep 2 and Sep 3 — Midnight between Sep 17 and Sep 18, San Pedro Sula, Weather by CustomWeather, © 2014

Note: Actual official high and low records may vary slightly from our data, if they occured in-between our weather recording intervals... More about our weather records

Advertising

San Pedro Sula weather history for previous 24 hours

 ConditionsComfort  
Time TempWeatherWind HumidityBarometerVisibility
12:00 AM
Sep 18
77 °FPassing clouds.No wind94%29.92 "HgN/A
11:00 PM
Sep 17
79 °FPassing clouds.5 mph94%29.95 "HgN/A
10:00 PM79 °FPassing clouds.6 mph94%29.95 "HgN/A
9:00 PM79 °FPassing clouds.5 mph94%29.95 "HgN/A
8:00 PM81 °FPassing clouds.5 mph89%29.92 "HgN/A
7:00 PM81 °FPassing clouds.7 mph89%29.89 "HgN/A
6:00 PM84 °FPassing clouds.12 mph74%29.86 "HgN/A
5:00 PM86 °FPassing clouds.12 mph70%29.83 "HgN/A
4:00 PM90 °FScattered clouds.14 mph67%29.83 "HgN/A
3:00 PM91 °FScattered clouds.12 mph63%29.83 "HgN/A
2:00 PM93 °FPartly sunny.8 mph59%29.86 "HgN/A
1:00 PM91 °FScattered clouds.8 mph56%29.86 "HgN/A
12:00 PM90 °FScattered clouds.5 mph59%29.92 "HgN/A
11:00 AM90 °FScattered clouds.3 mph59%29.95 "HgN/A
10:00 AM90 °FScattered clouds.No wind67%29.98 "HgN/A
9:00 AM82 °FBroken clouds.2 mph84%29.98 "HgN/A
8:00 AM79 °FScattered clouds.2 mph94%29.95 "HgN/A
7:00 AM77 °FBroken clouds.3 mph94%29.95 "HgN/A
6:00 AM75 °FPartly sunny.3 mph100%29.95 "HgN/A
3:00 AM77 °FPassing clouds.No wind94%29.95 "HgN/A
Weather by CustomWeather, © 2014

See weather overviewHow to use our weather pages